Regional Weather Roundup
Issued by NWS Albany, NY

Home | Current Version | Previous Version | Graphics & Text | Print | Product List | Glossary Off
Versions: 1 2 3 4 5 6 7 8 9 10 11 12 13 14 15 16 17 18 19 20 21 22 23 24 25 26 27 28 29 30 31 32 33 34 35 36 37 38 39 40 41 42 43 44 45 46 47 48 49 50

259
ASUS41 KALY 281610
RWRALY

NEW YORK STATE HOURLY WEATHER ROUNDUP
NATIONAL WEATHER SERVICE ALBANY NY
1200 PM EDT SAT MAY 28 2016

NOTE: "FAIR" INDICATES FEW OR NO CLOUDS BELOW 12,000 FEET WITH NO
SIGNIFICANT WEATHER AND/OR NO OBSTRUCTIONS TO VISIBILITY.

NYZ032-033-038>043-046>054-057>066-NYZ062>081-082-084-281700-
EAST


CITY           SKY/WX    TMP DP  RH WIND       PRES   REMARKS
ALBANY         PTSUNNY   87  65  47 CALM      30.10R
GLENS FALLS    MOSUNNY   84  66  54 VRB5      30.09S
POUGHKEEPSIE   SUNNY     87  68  52 VRB5      30.09S HX  90
NEWBURGH       SUNNY     84  72  65 W9        30.13S
MONTGOMERY     SUNNY     87  71  58 S8        30.10S HX  93
WHITE PLAINS   SUNNY     86  67  52 CALM      30.12F
ISLIP          MOSUNNY   77  62  59 SW12      30.14R
NEW YORK CITY  MOSUNNY   88  70  55 SW7       30.11F HX  93
CENTRAL PARK   SUNNY     87  66  49 VRB3      30.15S
$$

NYZ005>009-017-018-044>046-055-056-281700-
CENTRAL


CITY           SKY/WX    TMP DP  RH WIND       PRES   REMARKS
FULTON         SUNNY     87  65  47 SW6       30.10S
SYRACUSE       PTSUNNY   87  62  43 W9        30.09S
ROME           SUNNY     84  65  52 SW7       30.12R
ELMIRA         MOSUNNY   87  61  41 SW5       30.12F
BINGHAMTON     MOSUNNY   82  63  52 W6        30.17S
MONTICELLO     SUNNY     82  64  54 SW3       30.18F
$$

NYZ026>034-041>043-087-281700-
NORTH


CITY           SKY/WX    TMP DP  RH WIND       PRES   REMARKS
WATERTOWN      SUNNY     82  65  56 W12       30.10R
FORT DRUM      NOT AVBL
MASSENA        MOSUNNY   84  67  56 VRB7      30.08F
SARANAC LAKE   MOSUNNY   83  53  35 CALM      30.13S
PLATTSBURGH    MOSUNNY   78  67  68 NE6       30.08F
$$

NYZ001>004-010>016-019>021-085-281700-
WEST


CITY           SKY/WX    TMP DP  RH WIND       PRES   REMARKS
NIAGARA FALLS  PTSUNNY   86  65  49 S8        30.10R
BUFFALO        PTSUNNY   82  64  54 SW12      30.12R
DUNKIRK        MOSUNNY   85  62  46 NW6       30.12S
JAMESTOWN      SUNNY     81  63  54 CALM      30.17F
WELLSVILLE     MOSUNNY   82  63  52 NW7       30.21R
ROCHESTER      PTSUNNY   87  66  49 SW7       30.09S
PENN YAN       SUNNY     87  62  43 SW9       30.13S
$$

             KEY
       WCI = WIND CHILL INDEX
       VSB = VISIBILITY
       HX  = HEAT INDEX
$$




USA.gov is the U.S. government's official web portal to all federal, state and local government web resources and services.